Stündliche Wetter Warnowo

Heute, 22 Oktober, Donnerstag

Zeit Temperatur Niederschläge Wind Luftdruck Luftfeuchtigkeit
00:00 +9°C° 0 mm 5 m/S 747 mmHg 82%
01:00 +10°C° 0 mm 4 m/S 747 mmHg 83%
02:00 +9°C° 0 mm 5 m/S 746 mmHg 83%
03:00 +8°C° 0 mm 5 m/S 746 mmHg 83%
04:00 +8°C° 0 mm 5 m/S 746 mmHg 83%
05:00 +8°C° 0 mm 5 m/S 746 mmHg 81%
06:00 +9°C° 0 mm 5 m/S 746 mmHg 80%
07:00 +9°C° 0 mm 5 m/S 746 mmHg 78%
08:00 +11°C° 0 mm 6 m/S 746 mmHg 75%
09:00 +13°C° 0 mm 6 m/S 747 mmHg 72%
10:00 +14°C° 0 mm 7 m/S 747 mmHg 69%
11:00 +15°C° 0 mm 7 m/S 747 mmHg 69%
12:00 +15°C° 0 mm 7 m/S 748 mmHg 69%
13:00 +16°C° 0 mm 6 m/S 748 mmHg 68%
14:00 +15°C° 0 mm 6 m/S 748 mmHg 71%
15:00 +15°C° 0 mm 5 m/S 748 mmHg 75%
16:00 +14°C° 0 mm 4 m/S 748 mmHg 78%
17:00 +14°C° 0 mm 4 m/S 748 mmHg 82%
18:00 +13°C° 0 mm 4 m/S 748 mmHg 85%
19:00 +12°C° 0 mm 3 m/S 748 mmHg 89%
20:00 +12°C° 0 mm 3 m/S 748 mmHg 89%
21:00 +12°C° 0 mm 3 m/S 748 mmHg 90%
22:00 +11°C° 0 mm 3 m/S 748 mmHg 91%
23:00 +11°C° 0 mm 3 m/S 748 mmHg 91%

Morgen, 23 Oktober, Freitag

Zeit Temperatur Niederschläge Wind Luftdruck Luftfeuchtigkeit
00:00 +11°C° 0 mm 3 m/S 748 mmHg 92%
01:00 +11°C° 0 mm 3 m/S 748 mmHg 93%
02:00 +11°C° 0 mm 3 m/S 748 mmHg 93%
03:00 +11°C° 0 mm 4 m/S 747 mmHg 92%
04:00 +11°C° 0 mm 4 m/S 747 mmHg 92%
05:00 +11°C° 0.2 mm 4 m/S 746 mmHg 91%
06:00 +12°C° 0.2 mm 5 m/S 746 mmHg 90%
07:00 +12°C° 0.2 mm 5 m/S 746 mmHg 90%
08:00 +12°C° 0.9 mm 5 m/S 746 mmHg 90%
09:00 +12°C° 0.9 mm 5 m/S 746 mmHg 91%
10:00 +12°C° 0.9 mm 4 m/S 747 mmHg 91%
11:00 +13°C° 0 mm 5 m/S 747 mmHg 86%
12:00 +14°C° 0 mm 5 m/S 747 mmHg 80%
13:00 +15°C° 0 mm 5 m/S 747 mmHg 74%
14:00 +14°C° 0 mm 4 m/S 747 mmHg 76%
15:00 +13°C° 0 mm 3 m/S 747 mmHg 78%
16:00 +14°C° 0 mm 2 m/S 747 mmHg 80%
17:00 +13°C° 0 mm 2 m/S 747 mmHg 83%
18:00 +12°C° 0 mm 1 m/S 747 mmHg 86%
19:00 +11°C° 0 mm 1 m/S 747 mmHg 88%
20:00 +11°C° 0 mm 1 m/S 747 mmHg 89%
21:00 +11°C° 0 mm 1 m/S 747 mmHg 89%
22:00 +11°C° 0 mm 1 m/S 747 mmHg 90%
23:00 +10°C° 0 mm 1 m/S 747 mmHg 91%

übermorgen, 24 Oktober, Samstag

Zeit Temperatur Niederschläge Wind Luftdruck Luftfeuchtigkeit
00:00 +10°C° 0 mm 1 m/S 747 mmHg 91%
01:00 +10°C° 0 mm 1 m/S 747 mmHg 92%
02:00 +11°C° 0.1 mm 1 m/S 746 mmHg 93%
03:00 +11°C° 0.1 mm 1 m/S 746 mmHg 94%
04:00 +11°C° 0.1 mm 1 m/S 746 mmHg 95%
05:00 +10°C° 3.5 mm 2 m/S 745 mmHg 96%
06:00 +10°C° 3.5 mm 2 m/S 745 mmHg 96%
07:00 +10°C° 3.5 mm 2 m/S 745 mmHg 97%
08:00 +10°C° 1.9 mm 2 m/S 745 mmHg 95%
09:00 +10°C° 1.9 mm 2 m/S 745 mmHg 93%
10:00 +11°C° 1.9 mm 1 m/S 745 mmHg 92%
11:00 +13°C° 0 mm 2 m/S 746 mmHg 87%
12:00 +14°C° 0 mm 2 m/S 746 mmHg 82%
13:00 +15°C° 0 mm 2 m/S 746 mmHg 78%
14:00 +13°C° 0.2 mm 3 m/S 747 mmHg 80%
15:00 +13°C° 0.2 mm 3 m/S 747 mmHg 82%
16:00 +13°C° 0.2 mm 4 m/S 747 mmHg 85%
17:00 +12°C° 0.1 mm 3 m/S 748 mmHg 87%
18:00 +11°C° 0.1 mm 3 m/S 748 mmHg 90%
19:00 +10°C° 0.1 mm 3 m/S 749 mmHg 92%
20:00 +10°C° 0 mm 3 m/S 749 mmHg 92%
21:00 +10°C° 0 mm 3 m/S 749 mmHg 92%
22:00 +9°C° 0 mm 3 m/S 749 mmHg 92%
23:00 +9°C° 0 mm 3 m/S 750 mmHg 92%

, 25 Oktober, Sonntag

Zeit Temperatur Niederschläge Wind Luftdruck Luftfeuchtigkeit
00:00 +8°C° 0 mm 3 m/S 750 mmHg 91%
01:00 +8°C° 0 mm 3 m/S 750 mmHg 91%
02:00 +7°C° 0 mm 2 m/S 750 mmHg 91%
03:00 +7°C° 0 mm 2 m/S 750 mmHg 92%
04:00 +7°C° 0 mm 2 m/S 751 mmHg 92%
05:00 +7°C° 0 mm 2 m/S 751 mmHg 93%
06:00 +7°C° 0 mm 2 m/S 751 mmHg 94%
07:00 +8°C° 0 mm 1 m/S 751 mmHg 95%
08:00 +8°C° 0 mm 2 m/S 751 mmHg 90%
09:00 +10°C° 0 mm 2 m/S 752 mmHg 85%
10:00 +12°C° 0 mm 2 m/S 752 mmHg 81%
11:00 +13°C° 0 mm 2 m/S 752 mmHg 78%
12:00 +13°C° 0 mm 3 m/S 752 mmHg 75%
13:00 +14°C° 0 mm 3 m/S 752 mmHg 73%
14:00 +14°C° 0 mm 2 m/S 751 mmHg 77%
15:00 +13°C° 0 mm 2 m/S 751 mmHg 81%
16:00 +12°C° 0 mm 2 m/S 751 mmHg 86%
17:00 +12°C° 0 mm 2 m/S 751 mmHg 88%
18:00 +10°C° 0 mm 2 m/S 751 mmHg 90%
19:00 +10°C° 0 mm 2 m/S 751 mmHg 92%
20:00 +9°C° 0 mm 3 m/S 751 mmHg 92%
21:00 +9°C° 0 mm 3 m/S 751 mmHg 92%
22:00 +9°C° 0 mm 3 m/S 751 mmHg 92%
23:00 +9°C° 0 mm 3 m/S 751 mmHg 92%

25 Oktober, Sonntag

Zeit Temperatur Niederschläge Wind Luftdruck Luftfeuchtigkeit
00:00 +8°C° 0 mm 3 m/S 750 mmHg 91%
01:00 +8°C° 0 mm 3 m/S 750 mmHg 91%
02:00 +7°C° 0 mm 2 m/S 750 mmHg 91%
03:00 +7°C° 0 mm 2 m/S 750 mmHg 92%
04:00 +7°C° 0 mm 2 m/S 751 mmHg 92%
05:00 +7°C° 0 mm 2 m/S 751 mmHg 93%
06:00 +7°C° 0 mm 2 m/S 751 mmHg 94%
07:00 +8°C° 0 mm 1 m/S 751 mmHg 95%
08:00 +8°C° 0 mm 2 m/S 751 mmHg 90%
09:00 +10°C° 0 mm 2 m/S 752 mmHg 85%
10:00 +12°C° 0 mm 2 m/S 752 mmHg 81%
11:00 +13°C° 0 mm 2 m/S 752 mmHg 78%
12:00 +13°C° 0 mm 3 m/S 752 mmHg 75%
13:00 +14°C° 0 mm 3 m/S 752 mmHg 73%
14:00 +14°C° 0 mm 2 m/S 751 mmHg 77%
15:00 +13°C° 0 mm 2 m/S 751 mmHg 81%
16:00 +12°C° 0 mm 2 m/S 751 mmHg 86%
17:00 +12°C° 0 mm 2 m/S 751 mmHg 88%
18:00 +10°C° 0 mm 2 m/S 751 mmHg 90%
19:00 +10°C° 0 mm 2 m/S 751 mmHg 92%
20:00 +9°C° 0 mm 3 m/S 751 mmHg 92%
21:00 +9°C° 0 mm 3 m/S 751 mmHg 92%
22:00 +9°C° 0 mm 3 m/S 751 mmHg 92%
23:00 +9°C° 0 mm 3 m/S 751 mmHg 92%

26 Oktober, Montag

Zeit Temperatur Niederschläge Wind Luftdruck Luftfeuchtigkeit
00:00 +9°C° 0 mm 3 m/S 751 mmHg 92%
01:00 +8°C° 0 mm 3 m/S 751 mmHg 92%
02:00 +8°C° 0 mm 3 m/S 751 mmHg 92%
03:00 +8°C° 0 mm 3 m/S 751 mmHg 92%
04:00 +8°C° 0 mm 3 m/S 750 mmHg 92%
05:00 +8°C° 0 mm 3 m/S 750 mmHg 91%
06:00 +7°C° 0 mm 4 m/S 750 mmHg 91%
07:00 +6°C° 0 mm 4 m/S 750 mmHg 91%
08:00 +8°C° 0 mm 4 m/S 750 mmHg 87%
09:00 +9°C° 0 mm 5 m/S 750 mmHg 83%
10:00 +10°C° 0 mm 5 m/S 750 mmHg 79%
11:00 +12°C° 0 mm 5 m/S 749 mmHg 76%
12:00 +13°C° 0 mm 5 m/S 749 mmHg 74%
13:00 +14°C° 0 mm 5 m/S 749 mmHg 71%
14:00 +13°C° 0 mm 5 m/S 748 mmHg 74%
15:00 +13°C° 0 mm 5 m/S 748 mmHg 77%
16:00 +12°C° 0 mm 4 m/S 748 mmHg 80%
17:00 +12°C° 0 mm 4 m/S 748 mmHg 81%
18:00 +12°C° 0 mm 4 m/S 748 mmHg 81%
19:00 +11°C° 0 mm 4 m/S 748 mmHg 82%
20:00 +11°C° 0 mm 4 m/S 748 mmHg 83%
21:00 +11°C° 0 mm 4 m/S 747 mmHg 84%
22:00 +10°C° 0 mm 4 m/S 747 mmHg 85%
23:00 +10°C° 0 mm 4 m/S 747 mmHg 85%

27 Oktober, Dienstag

Zeit Temperatur Niederschläge Wind Luftdruck Luftfeuchtigkeit
00:00 +9°C° 0 mm 5 m/S 747 mmHg 84%
01:00 +9°C° 0 mm 5 m/S 747 mmHg 84%
02:00 +10°C° 0 mm 4 m/S 747 mmHg 85%
03:00 +8°C° 0 mm 4 m/S 747 mmHg 87%
04:00 +8°C° 0 mm 4 m/S 747 mmHg 88%
05:00 +8°C° 0 mm 4 m/S 747 mmHg 90%
06:00 +7°C° 0 mm 4 m/S 747 mmHg 91%
07:00 +7°C° 0 mm 4 m/S 747 mmHg 93%
08:00 +10°C° 0 mm 3 m/S 748 mmHg 88%
09:00 +11°C° 0 mm 3 m/S 748 mmHg 84%
10:00 +12°C° 0 mm 3 m/S 748 mmHg 80%
11:00 +13°C° 0 mm 3 m/S 748 mmHg 78%
12:00 +13°C° 0 mm 3 m/S 748 mmHg 77%
13:00 +14°C° 0 mm 3 m/S 748 mmHg 75%
14:00 +13°C° 0 mm 3 m/S 748 mmHg 79%
15:00 +13°C° 0 mm 3 m/S 748 mmHg 82%
16:00 +13°C° 0 mm 2 m/S 749 mmHg 86%
17:00 +12°C° 0 mm 2 m/S 749 mmHg 88%
18:00 +12°C° 0 mm 2 m/S 749 mmHg 90%
19:00 +10°C° 0 mm 2 m/S 749 mmHg 92%
20:00 +10°C° 0 mm 2 m/S 750 mmHg 92%
21:00 +10°C° 0 mm 2 m/S 750 mmHg 92%
22:00 +10°C° 0 mm 2 m/S 750 mmHg 93%
23:00 +10°C° 0 mm 2 m/S 750 mmHg 93%
Mehr zeigen

Wir brauchen deine Erlaubnis

Meteoprog und unser Service Anbieter werden persönliche Daten aufbewahren, so wie Cookies, Geräte Bezeichnung oder ähnliche Technologien von deinem Gerät und Prozess, so wie Persönliche Daten Inhalte und Werbungen, genauso wie social Media und den Verkehr zu analysieren.

  • Aufbewahrung und/oder Zugang zu deiner Geräte Informationen.

    Cookies, Geräte Bezeichnung oder andere Informationen, können aufbewahrt oder Zugang zu deinem Gerät erhalten, für den Grund, der oben angegeben wird.

  • Personalisierte Werbung und Inhalte, Messungen, Einblick in das Publikum und Produkt Entwicklung.

    Werbungen und Inhalte können personalisiert werden, basierend auf ein Profil. Mehr Daten können besser personalisierte Werbungen und Inhalte hinzufügen. Werbung und Inhalte können gezeigt und gemessen werden. Einblicke über das Publikum, welche die Werbung gesehen haben und den Inhalt, können abgeleitet werden. So wie Daten können genutzt werden, um es zu verbessern oder die Benutzer Erfahrung zu verbessern das System und die Software.

Wenn du “Ich stimme zu” klickst, erlaubst du uns, die Cookies zu benutzen die Geräte Bezeichnung, den Web oder ähnliche Technologien zu benutzen. Deine Settings, können in deinem Gerät bei deinem Browser geändert werden.

Für den bestimmten Zweck, berechtigten Interessen beruhen darauf, mehr als auf den Inhalt. Du kannst mehr darüber in unseren Privaten und Cookie Politik lesen.